Previsão horária em Plesy

Hoje, 5 Março, Sexta-feira

Tempo Temperatura Precipitação Vento Pressão Humidade
00:00 -3°C° 0 mm 2 m/s 749 mmHg 85%
01:00 -3°C° 0 mm 2 m/s 749 mmHg 85%
02:00 -3°C° 0 mm 2 m/s 749 mmHg 83%
03:00 -3°C° 0 mm 2 m/s 749 mmHg 82%
04:00 -3°C° 0 mm 2 m/s 749 mmHg 80%
05:00 -3°C° 0 mm 2 m/s 750 mmHg 79%
06:00 -2°C° 0 mm 2 m/s 750 mmHg 78%
07:00 -2°C° 0 mm 2 m/s 751 mmHg 77%
08:00 -1°C° 0 mm 3 m/s 751 mmHg 67%
09:00 -1°C° 0 mm 4 m/s 751 mmHg 57%
10:00 0°C° 0 mm 4 m/s 752 mmHg 47%
11:00 0°C° 0.1 mm 4 m/s 752 mmHg 45%
12:00 +1°C° 0.1 mm 4 m/s 752 mmHg 42%
13:00 +1°C° 0 mm 4 m/s 753 mmHg 39%
14:00 +1°C° 0.1 mm 4 m/s 753 mmHg 44%
15:00 0°C° 0.1 mm 4 m/s 753 mmHg 49%
16:00 0°C° 0.1 mm 5 m/s 753 mmHg 54%
17:00 -1°C° 0 mm 4 m/s 754 mmHg 61%
18:00 -1°C° 0 mm 3 m/s 754 mmHg 68%
19:00 -2°C° 0 mm 2 m/s 754 mmHg 75%
20:00 -3°C° 0 mm 2 m/s 755 mmHg 76%
21:00 -3°C° 0 mm 2 m/s 755 mmHg 76%
22:00 -3°C° 0 mm 2 m/s 755 mmHg 76%
23:00 -3°C° 0 mm 2 m/s 756 mmHg 75%

Amanhã, 6 Março, Sábado

Tempo Temperatura Precipitação Vento Pressão Humidade
00:00 -3°C° 0 mm 2 m/s 756 mmHg 75%
01:00 -3°C° 0 mm 2 m/s 756 mmHg 74%
02:00 -3°C° 0 mm 2 m/s 756 mmHg 73%
03:00 -3°C° 0 mm 2 m/s 756 mmHg 72%
04:00 -3°C° 0 mm 2 m/s 756 mmHg 71%
05:00 -3°C° 0 mm 2 m/s 756 mmHg 71%
06:00 -2°C° 0 mm 2 m/s 756 mmHg 72%
07:00 -2°C° 0 mm 3 m/s 756 mmHg 72%
08:00 -1°C° 0 mm 3 m/s 756 mmHg 66%
09:00 0°C° 0 mm 3 m/s 756 mmHg 61%
10:00 0°C° 0 mm 4 m/s 756 mmHg 55%
11:00 +1°C° 0 mm 4 m/s 756 mmHg 51%
12:00 +1°C° 0 mm 5 m/s 756 mmHg 47%
13:00 +2°C° 0 mm 5 m/s 755 mmHg 43%
14:00 +2°C° 0 mm 6 m/s 755 mmHg 51%
15:00 +1°C° 0 mm 6 m/s 754 mmHg 60%
16:00 +1°C° 0 mm 6 m/s 753 mmHg 68%
17:00 -1°C° 0.1 mm 6 m/s 753 mmHg 72%
18:00 -1°C° 0.1 mm 6 m/s 753 mmHg 77%
19:00 -1°C° 0.1 mm 6 m/s 752 mmHg 82%
20:00 -1°C° 0 mm 7 m/s 752 mmHg 81%
21:00 -1°C° 0 mm 7 m/s 751 mmHg 80%
22:00 -1°C° 0 mm 7 m/s 751 mmHg 79%
23:00 -1°C° 0 mm 7 m/s 751 mmHg 80%

Depois de amanhã, 7 Março, Domingo

Tempo Temperatura Precipitação Vento Pressão Humidade
00:00 -1°C° 0 mm 8 m/s 750 mmHg 80%
01:00 -1°C° 0 mm 8 m/s 750 mmHg 81%
02:00 -2°C° 0 mm 8 m/s 749 mmHg 83%
03:00 -2°C° 0 mm 8 m/s 749 mmHg 86%
04:00 -2°C° 0 mm 8 m/s 748 mmHg 88%
05:00 -2°C° 0.1 mm 8 m/s 748 mmHg 91%
06:00 -2°C° 0.1 mm 7 m/s 748 mmHg 93%
07:00 -2°C° 0.1 mm 7 m/s 748 mmHg 96%
08:00 -2°C° 0.2 mm 7 m/s 748 mmHg 95%
09:00 -2°C° 0.2 mm 7 m/s 748 mmHg 95%
10:00 -2°C° 0.2 mm 7 m/s 748 mmHg 95%
11:00 -2°C° 0.4 mm 7 m/s 748 mmHg 95%
12:00 -2°C° 0.4 mm 7 m/s 748 mmHg 95%
13:00 -2°C° 0.4 mm 7 m/s 748 mmHg 95%
14:00 -2°C° 0.8 mm 6 m/s 748 mmHg 94%
15:00 -1°C° 0.8 mm 5 m/s 747 mmHg 93%
16:00 0°C° 0.8 mm 3 m/s 747 mmHg 92%
17:00 -1°C° 0.2 mm 3 m/s 747 mmHg 91%
18:00 -2°C° 0.2 mm 2 m/s 747 mmHg 89%
19:00 -1°C° 0.2 mm 1 m/s 747 mmHg 88%
20:00 -3°C° 0 mm 2 m/s 748 mmHg 88%
21:00 -3°C° 0 mm 2 m/s 748 mmHg 89%
22:00 -3°C° 0 mm 2 m/s 748 mmHg 89%
23:00 -3°C° 0 mm 2 m/s 748 mmHg 87%

8 Março, Segunda-feira

Tempo Temperatura Precipitação Vento Pressão Humidade
00:00 -3°C° 0 mm 2 m/s 748 mmHg 85%
01:00 -3°C° 0 mm 2 m/s 749 mmHg 83%
02:00 -3°C° 0 mm 2 m/s 749 mmHg 81%
03:00 -4°C° 0 mm 2 m/s 749 mmHg 79%
04:00 -4°C° 0 mm 2 m/s 749 mmHg 76%
05:00 -3°C° 0 mm 2 m/s 749 mmHg 76%
06:00 -3°C° 0 mm 2 m/s 749 mmHg 75%
07:00 -3°C° 0 mm 2 m/s 750 mmHg 75%
08:00 -2°C° 0 mm 3 m/s 750 mmHg 71%
09:00 -1°C° 0 mm 3 m/s 751 mmHg 68%
10:00 -1°C° 0 mm 4 m/s 751 mmHg 64%
11:00 -1°C° 0 mm 4 m/s 751 mmHg 63%
12:00 -1°C° 0 mm 4 m/s 752 mmHg 61%
13:00 -1°C° 0 mm 4 m/s 752 mmHg 60%
14:00 0°C° 0 mm 3 m/s 752 mmHg 61%
15:00 0°C° 0 mm 3 m/s 752 mmHg 63%
16:00 -1°C° 0 mm 3 m/s 752 mmHg 64%
17:00 -2°C° 0 mm 3 m/s 752 mmHg 69%
18:00 -3°C° 0 mm 2 m/s 753 mmHg 74%
19:00 -4°C° 0 mm 2 m/s 753 mmHg 79%
20:00 -2°C° 0 mm 1 m/s 753 mmHg 79%
21:00 -2°C° 0 mm 1 m/s 753 mmHg 79%
22:00 -2°C° 0 mm 1 m/s 754 mmHg 79%
23:00 -2°C° 0 mm 1 m/s 754 mmHg 77%

9 Março, Terça-feira

Tempo Temperatura Precipitação Vento Pressão Humidade
00:00 -3°C° 0 mm 0 m/s 754 mmHg 76%
01:00 -3°C° 0 mm 0 m/s 754 mmHg 74%
02:00 -3°C° 0 mm 0 m/s 754 mmHg 74%
03:00 -2°C° 0 mm 1 m/s 753 mmHg 74%
04:00 -2°C° 0 mm 1 m/s 753 mmHg 74%
05:00 -2°C° 0 mm 1 m/s 753 mmHg 75%
06:00 -4°C° 0 mm 2 m/s 753 mmHg 75%
07:00 -4°C° 0 mm 2 m/s 753 mmHg 76%
08:00 -3°C° 0 mm 2 m/s 753 mmHg 71%
09:00 -2°C° 0 mm 2 m/s 753 mmHg 67%
10:00 -1°C° 0 mm 3 m/s 753 mmHg 62%
11:00 0°C° 0 mm 3 m/s 753 mmHg 59%
12:00 +1°C° 0 mm 3 m/s 753 mmHg 57%
13:00 +1°C° 0 mm 3 m/s 753 mmHg 54%
14:00 +1°C° 0 mm 3 m/s 752 mmHg 54%
15:00 +1°C° 0 mm 3 m/s 752 mmHg 55%
16:00 +1°C° 0 mm 3 m/s 751 mmHg 55%
17:00 0°C° 0 mm 3 m/s 751 mmHg 61%
18:00 -1°C° 0 mm 2 m/s 751 mmHg 67%
19:00 -2°C° 0 mm 2 m/s 751 mmHg 73%
20:00 -2°C° 0 mm 3 m/s 751 mmHg 76%
21:00 -2°C° 0 mm 3 m/s 750 mmHg 79%
22:00 -2°C° 0 mm 3 m/s 750 mmHg 82%
23:00 -1°C° 0 mm 3 m/s 750 mmHg 87%

10 Março, Quarta-feira

Tempo Temperatura Precipitação Vento Pressão Humidade
00:00 -1°C° 0 mm 3 m/s 749 mmHg 92%
01:00 -1°C° 0 mm 4 m/s 749 mmHg 97%
02:00 -1°C° 0.1 mm 4 m/s 748 mmHg 97%
03:00 -1°C° 0.1 mm 4 m/s 748 mmHg 97%
04:00 0°C° 0.1 mm 4 m/s 748 mmHg 97%
05:00 0°C° 0.1 mm 4 m/s 747 mmHg 97%
06:00 0°C° 0.1 mm 4 m/s 747 mmHg 97%
07:00 0°C° 0.1 mm 4 m/s 747 mmHg 97%
08:00 0°C° 0 mm 4 m/s 747 mmHg 96%
09:00 +1°C° 0 mm 4 m/s 746 mmHg 94%
10:00 +1°C° 0 mm 4 m/s 746 mmHg 93%
11:00 +3°C° 0 mm 4 m/s 746 mmHg 88%
12:00 +3°C° 0 mm 5 m/s 745 mmHg 83%
13:00 +3°C° 0 mm 5 m/s 744 mmHg 78%
14:00 +3°C° 0 mm 5 m/s 744 mmHg 78%
15:00 +3°C° 0 mm 5 m/s 743 mmHg 78%
16:00 +3°C° 0 mm 5 m/s 742 mmHg 78%
17:00 +2°C° 0 mm 5 m/s 741 mmHg 81%
18:00 +2°C° 0 mm 6 m/s 740 mmHg 84%
19:00 +2°C° 0 mm 6 m/s 739 mmHg 88%
20:00 +2°C° 0.2 mm 6 m/s 738 mmHg 89%
21:00 +2°C° 0.2 mm 6 m/s 737 mmHg 90%
22:00 +2°C° 0.2 mm 6 m/s 736 mmHg 91%
23:00 +2°C° 0.3 mm 7 m/s 736 mmHg 91%
Mostrar mais

Necessitamos do seu Consentimento

A Meteoprog e os seus Fornecedores de Serviços podem armazenar e aceder a dados pessoais como cookies, identificadores do dispositivo ou outras tecnologias semelhantes existentes no seu dispositivo e processar estes dados para personalizar conteúdos e anúncios, assim como funcionalidades nas redes sociais e análise de tráfego.

  • Armazenar e/ou aceder a informações no seu dispositivo

    Os cookies, identificadores do dispositivo ou outras informações podem ser armazenados ou acedidos no seu dispositivo, para os fins acima indicados.

  • Anúncios e conteúdos personalizados, medição de anúncios e conteúdos, dados sobre o público-alvo e desenvolvimento de produtos

    Os anúncios e os conteúdos podem ser personalizados com base num perfil. Podem ser adicionados dados adicionais para uma maior personalização dos anúncios e dos conteúdos. A eficácia dos anúncios e dos conteúdos pode ser medida. Podem ser obtidas informações sobre o público que visualizou os anúncios e os conteúdos. Estes dados podem ser usados para desenvolver ou melhorar sistemas, softwares ou a experiência do utilizador.

Ao clicar em "Eu concordo”, permitirá o uso de cookies, identificadores do dispositivo e web beacons mencionados ou outras tecnologias semelhantes. As configurações do navegador do seu dispositivo podem ser alteradas.

Para certos fins, podem ser invocados interesses legítimos ao invés de consentimento. Pode ler mais informação sobre este assunto na nossa Política de Privacidade e Cookies.